Terminal Aerodrome Forecast
Issued by NWS

Home | Current Version | Previous Version | Text Only | Print | Product List | Glossary On
Versions: 1 2 3 4 5 6 7 8 9 10 11 12 13
000
FTUS41 KBTV 291730
TAFMSS
TAF
KMSS 291730Z 2918/3018 10009KT P6SM BKN090
     FM292300 12012KT 3SM -SN BR OVC035
     FM300400 18007KT 1SM -SN BR OVC008
     FM301300 28010KT 1SM -SN BR OVC008
     FM301700 30014G22KT 3SM -SN BLSN BR OVC015=

USA.gov is the U.S. government's official web portal to all federal, state and local government web resources and services.